Location: Pilipovskiye Korichintsy
(49.1833°N, 27.4667°E)
Time: 00:07:20
(UTC+00:00)

Lacrosse 5 - Pass Details

Date: 01 November 2020
Orbit: 714 x 725 km, 57.0° (Epoch: 30 November)

Event Time Altitude Azimuth Distance (km) Brightness Sun altitude
Rises 17:18:46 0° 303° (WNW) 3,121 6.2 -24.9°
Reaches altitude 10° 17:21:09 10° 306° (NW) 2,199 5.2 -25.3°
Enters shadow 17:25:55 71° 359° (N) 758 1.9 -26.1°
